090  
ASUS45 KBOU 230007  
RWRCO  
 
WEATHER ROUNDUP FOR COLORADO  
NATIONAL WEATHER SERVICE DENVER/BOULDER CO  
600 PM MDT WED MAR 22 2017  
 
NOTE: "FAIR" INDICATES FEW OR NO CLOUDS BELOW 12000 FEET WITH NO  
SIGNIFICANT WEATHER AND/OR S TO VISIBILITY
.  
 
COZ001>005-013-030-031-230100-   
..NORTHWEST COLORADO
 
 
 
CITY SKY/WX TMP DP RH WIND PRES REMARKS
 
CRAIG FAIR 62 21 20 S17G25 29.88F  
HAYDEN FAIR 59 21 23 S17G24 29.91F  
MEEKER FAIR 59 27 29 S18G28 29.92R  
MOUNT WERNER NOT AVBL  
STEAMBOAT SPGS CLOUDY 55 26 33 SE14G21 29.94F  
WALDEN NOT AVBL  

 
 
COZ006>008-011-230100-   
..WEST CENTRAL VALLEYS
 
 
 
CITY SKY/WX TMP DP RH WIND PRES REMARKS
 
GRAND JUNCTION PTSUNNY 69 24 18 S28G33 29.84F  
MONTROSE FAIR 63 25 23 N10 29.91F  
EAGLE PTSUNNY 57 28 33 SW10 30.00F  
RIFLE CLOUDY 60 32 34 E12 29.91F  
DELTA CLOUDY 68 24 18 CALM 29.87F  
NUCLA FAIR 64 19 17 S13G21 29.94F  

 
 
COZ017>023-064>068-230100-   
..SOUTHWEST COLORADO
 
 
 
CITY SKY/WX TMP DP RH WIND PRES REMARKS
 
DURANGO FAIR 62 19 19 SE3 29.98F  
CORTEZ FAIR 65 22 19 SW5 29.92F  
PAGOSA SPRINGS FAIR 58 24 27 CALM 30.05F  
TELLURIDE FAIR 53 20 27 SE13G20 30.09F  
WOLF CREEK PAS PTSUNNY 34 21 60 S13G21 30.29F WCI 25  

 
 
COZ009-010-012-014-032>034-037-058>063-230100-   
..CENTRAL COLORADO
 
 
 
CITY SKY/WX TMP DP RH WIND PRES REMARKS
 
ASPEN FAIR 54 26 34 NW8 30.00F  
BUENA VISTA FAIR 62 12 14 W6 29.99F  
COPPER MTN PTSUNNY 41 18 38 S10 30.21F  
BERTHOUD PASS PTSUNNY 32 23 69 SW14G31 30.24R WCI 22  
COTTONWOOD PAS FAIR 55 9 15 W15G26 30.09F  
GUNNISON FAIR 51 28 41 NW3 30.02  
KREMMLING FAIR 61 23 23 SW20G25 29.99F  
LEADVILLE FAIR 47 15 27 SW12G21 30.08F  
MONARCH PASS FAIR 41 16 36 SW26G38 30.30F  
SALIDA FAIR 68 10 10 SW13 30.05S  
SUNLIGHT CLOUDY 34 27 75 S9G17 30.16F WCI 26  
WILKERSON PASS FAIR 45 7 21 SW16G28 30.18F  

 
 
COZ069>075-230100-   
..SAN LUIS VALLEY/SANGRE DE CRISTO MOUNTAINS
 
 
 
CITY SKY/WX TMP DP RH WIND PRES REMARKS
 
ALAMOSA FAIR 66 19 16 SW22G29 30.00F  
LA VETA PASS NOT AVBL  
SAGUACHE FAIR 66 10 11 SW18G26 30.03R  

 
 
COZ035-036-038>040-230100-   
..NORTHERN COLORADO FRONT RANGE
 
 
 
CITY SKY/WX TMP DP RH WIND PRES REMARKS
 
DENVER INTL AP PTSUNNY 68 34 28 NW6 29.83F  
DMNS CITY PARK N/A 64 33 31 W5 29.84S  
AURORA PTSUNNY 66 34 31 N5 29.86R  
FRONT RANGE AP PTSUNNY 72 32 23 NW9 29.84S  
ERIE MUNI ARPT FAIR 65 31 28 NW5 29.83F  
BOULDER MUN AP FAIR 64 32 29 CALM 29.84S  
CENTENNIAL CLOUDY 65 33 30 N7 29.87R  
BROOMFIELD NOT AVBL  
FORT COLLINS FAIR 67 34 29 NW3 29.84F  
LONGMONT FAIR 69 32 25 CALM 29.85S  

 
 
COZ041-046-047-076>085-087-088-230100-   
..PIKES PEAK/PALMER DIVIDE AND SOUTHERN FOOTHILLS
 
 
 
CITY SKY/WX TMP DP RH WIND PRES REMARKS
 
COLO. SPRINGS PTSUNNY 62 31 31 S9 29.94F  
A. F. ACADEMY FAIR 59 30 33 S13 29.94S  
SCHRIEVER AFB FAIR 61 30 31 S12 29.95S  
ELLICOTT N/A N/A N/A N/A S9 29.93S  
FALCON FAIR 59 29 32 S21 29.98S  
FORT CARSON MOSUNNY 63 34 34 SE7 29.92F  
LIMON FAIR 61 38 42 SE13G22 29.91R  
MONUMENT HILL FAIR 55 30 38 S20 29.96R  
TRINIDAD FAIR 77 29 17 S22G37 29.88R  

 
 
COZ042>045-048>051-090-091-230100-   
..NORTHEAST COLORADO
 
 
 
CITY SKY/WX TMP DP RH WIND PRES REMARKS
 
GREELEY ARPT FAIR 71 36 27 CALM 29.81F  
AKRON FAIR 66 35 31 SE21 29.86S  
BURLINGTON FAIR 60 39 45 SE29G35 29.91F  
WRAY FAIR 61 36 39 SE20G26 29.91F  
STERLING FAIR 70 37 30 SE17G24 29.82S  
HOLYOKE FAIR 59 36 41 SE18 29.91S  
FORT MORGAN FAIR 71 32 23 SE17G26 29.82R  

 
 
COZ086-089-092>099-230100-   
..SOUTHEAST COLORADO
 
 
 
CITY SKY/WX TMP DP RH WIND PRES REMARKS
 
PUEBLO FAIR 68 35 29 E5 29.86S  
LA JUNTA FAIR 79 37 22 E14G31 29.78F  
LAMAR FAIR 71 41 33 SE25G33 29.85F  
SPRINGFIELD N/A 67 42 40 S28G33 29.92S  

 
 
 
CLICK HERE TO GO TO PREVIOUS BULLETINS.

The Nexlab CO Page Main Text Page